THORAD AGENA D DEB, 4950

Orbit data source: Space-Track

THORAD AGENA D DEB, 4950 is space debris in SSO originally from a launch on Wed, 08 Apr 1970 UTC launched from the Air Force Western Test Range (AFWTR). Debris objects in space refer to the collection of defunct objects orbiting the Earth. Examples of debris include non-operational satellites, rocket bodies, and fragments generated from explosions, collisions, or faulty payload assembly.

Loading next visibility...
Identifier
4950, 1970-025GL
Orbit
SSO
Country
Flag of USUS
Related business
Manufacturer
Unknown
Mission
Spacecraft
Bus & Motor
Unknown
Mass
Unknown
Launch date (UTC)
1970-04-08 (56 years ago)
Launch vehicle
Unknown
Launch site
Air Force Western Test Range (AFWTR)
Object type
Payload
Rocket body
Debris
Shape & HBR
Unknown shape, 0.1 m
Radar Cross Section
Small (<0.1 m²)

Expand to show TLE details & history
Last TLE update: 22 hours ago

TLE from 22 hours ago
0 THORAD AGENA D DEB
1 04950U 70025GL  25292.05198429  .00000028  00000-0  17554-3 0  9995
2 04950  99.8446 198.4926 0219586 215.8097 276.7394 13.10137939651920
Epoch: 2025-10-19T01:14Z
TLE epoch observation values (Epoch: 2025-10-19T01:14:51.442Z)
Latitude
49.05797°
Longitude
-16.51613°
Altitude
1,214.273 km
Speed
7.259 km/s
True Right ascension
01h 59m 53s
True Declination
48° 53' 52"
Sunlit
Object was in full shadow at epoch
Visualization orbit readout
Latitude
Unknown
Longitude
Unknown
Altitude
Unknown
Speed
Unknown
Apparent Right ascension
Unknown
Apparent Declination
Unknown
Sunlit
N/A
Visualization observer readout
Local Sidereal Time
18:31:30
Azimuth
Unknown
Elevation
Unknown
Doppler factor
Unknown
Orbital elements
Apogee altitude
1,386.83 km
Perigee altitude
1,053.142 km
Semi-major axis
7,598.123 km
Eccentricity
0.02196
Inclination
99.8446°
RAAN
198.4926°
Arg. of periapsis
215.8097°
True anomaly
274.23324°
Mean anomaly
276.7394°
Eccentric anomaly
275.48703°
Mean motion
3.27705 °/min
Orbital period
109.85 mins
BSTAR
0.00017554
Loading maneuver chart data...
Computing Atmospheric mass density...

Documentation

Showing up to 5 results
|